SCP
0 0 0 0 0 0 0 0 0 0 0 0 0 0 0 0 0 0 0 0 0 0 0 0 0 0 0 0 0 0 0 0 0 0 0 0 0 0 0 0 0 0 0 0 0 0 0 0 0 0 0 0 0 0
0 0 0 0 0 0 0 0 0 0 0 0 0 0 0 0 0 0 0 0 0 0 0 0 0 0 0 0 0 0 0 0 0 0 0 0 0 0 0 0 0 0 0 0 0 0 0 0 0 0 0 0 0 0
0 0 0 0 0 0 0 0 0 0 0 0 0 0 0 0 0 0 0 0 0 0 0 0 0 0 0 0 0 0 0 0 0 0 0 0 0 0 0 0 0 0 0 0 0 0 0 0 0 0 0 0 0 0
0 0 0 0 0 0 0 0 0 0 0 0 0 0 0 0 0 0 0 0 0 0 0 0 0 0 0 0 0 0 0 0 0 0 0 0 0 0 0 0 0 0 0 0 0 0 0 0 0 0 0 0 0 0
0 0 0 0 0 0 0 0 0 0 0 0 0 0 0 0 0 0 0 0 0 0 0 0 -0 0 0 0 0 0 0 0 0 0 0 0 0 0 0 0 0 0 0 0 0 0 0 0 0 0 0 0 0 0
0 0 0 0 0 0 0 0 0 0 0 0 0 0 0 0 0 0 0 0 0 0 0 0 0 0 0 0 0 0 0 0 0 0 0 0 0 0 0 0 0 0 0 0 0 0 0 0 0 0 0 0 0 0
0 0 0 0 0 0 0 0 0 0 0 0 0 0 0 0 0 0 0 0 0 0 0 0 0 0 0 0 0 0 0 0 0 0 0 0 0 0 0 0 0 0 0 0 0 0 0 0 0 0 0 0 0 0
0 0 0 0 0 0 0 0 0 0 0 0 0 0 0 0 0 0 0 0 0 0 0 0 0 0 0 0 0 0 0 0 0 0 0 0 0 0 0 0 0 0 0 0 0 0 0 0 0 0 0 0 0 0
0 0 0 0 0 0 0 0 0 0 0 0 0 0 0 0 0 0 0 0 0 0 0 0 0 0 0 0 0 0 0 0 0 0 0 0 0 0 0 0 0 0 0 0 0 0 0 0 0 0 0 0 0 0
0 0 0 0 0 0 0 0 0 0 0 0 0 0 0 0 0 0 0 0 0 0 0 0 0 0 0 0 0 0 0 0 0 0 0 0 0 0 0 0 0 0 0 0 0 0 0 0 0 0 0 0 0 0
0 0 0 0 0 0 0 0 0 0 0 0 0 0 0 0 0 0 0 0 0 0 0 0 0 0 0 0 0 0 0 0 0 0 0 0 0 0 0 0 0 0 0 0 0 0 0 0 0 0 0 0 0 0
0 0 0 0 0 0 0 0 0 0 0 0 0 0 0 0 0 0 0 0 0 0 0 0 0 0 0 0 0 0 0 0 0 0 0 0 0 0 0 0 0 0 0 0 0 0 0 0 0 0 0 0 0 0
0 0 0 0 0 0 0 0 0 0 0 0 0 0 0 0 0 0 0 0 0 0 0 0 0 0 0 0 0 0 0 0 0 0 0 0 0 0 0 0 0 0 0 0 0 0 0 0 0 0 0 0 0 0
0 0 0 0 0 0 0 0 0 0 0 0 0 0 0 0 0 0 0 0 0 0 0 0 0 0 0 0 0 0 0 0 0 0 0 0 0 0 0 0 0 0 0 0 0 0 0 0 0 0 0 0 0 0
0 0 0 0 0 0 0 0 0 0 0 0 0 0 0 0 0 0 0 0 0 0 0 0 0 0 0 0 0 0 0 0 0 0 0 0 0 0 0 0 0 0 0 0 0 0 0 0 0 0 0 0 0 0
0 0 0 0 0 0 0 0 0 0 0 0 0 0 0 0 0 0 0 0 0 0 0 0 0 0 0 0 0 0 0 0 0 0 0 0 0 0 0 0 0 0 0 0 0 0 0 0 0 0 0 0 0 0
0 0 0 0 0 0 0 0 0 0 0 0 0 0 0 0 0 0 0 0 0 0 0 0 0 0 0 0 0 0 0 0 0 0 0 0 0 -0 0 0 0 0 0 0 0 0 0 0 0 -0 -0 -0 -0 -0
0 0 0 0 0 0 0 0 0 0 0 0 0 0 0 -0 -0 0 0 0 0 0 0 0 0 0 0 0 0 0 0 -0 0 0 0 -0 -0 0 0 0 0 0 0 0 0 -0 -0 0 0 0 0 0 0 0
0 0 0 0 0 0 0 0 0 0 0 0 0 0 -0 -0 -0 -0 0 0 0 0 0 0 0 0 0 0 0 0 -0 -0 -0 -0 -0 0 -0 -0 0 0 0 0 0 0 0 0 0 0 0 0 0 0 0 0
0 0 0 0 0 0 0 0 0 0 0 0 0 0 0 0 0 0 -0 -0 0 0 0 0 0 0 0 0 0 -0 -0 -0 -0 -0 0 0 0 -0 0 0 0 0 0 0 0 0 0 0 0 0 0 0 0 0
0 0 0 0 0 0 0 0 0 0 0 0 0 0 0 0 0 0 0 0 0 -0 -0 0 0 0 0 -0 -0 -0 -0 -0 -0 -0 0 -0 -0 -0 0 -0 -0 0 0 0 0 0 0 0 0 0 0 0 0 0
0 -0 0 0 0 0 0 0 0 0 0 0 0 0 0 0 0 0 0 -0 -0 -0 -0 -0 -0 -0 -0 0 0 0 0 -0 -0 0 0 0 -0 -0 -0 -0 -0 0 0 0 0 0 0 0 0 0 0 0 0 0
0 0 0 0 0 0 0 0 0 0 0 0 0 0 0 0 0 0 -0 -0 -0 -0 0 0 0 0 0 0 0 0 0 0 0 0 0 0 0 0 -0 0 0 0 0 0 0 0 0 0 0 0 0 -0 0 0
0 0 0 0 0 0 0 0 0 -0 -0 0 0 0 0 0 0 -0 -0 -0 0 0 0 0 0 0 0 0 0 0 -0 0 0 0 0 0 0 0 0 0 0 0 0 0 0 0 0 0 0 -0 -0 0 0 0
0 0 0 0 0 -0 0 0 0 0 0 0 0 0 0 0 0 -0 0 0 0 0 0 0 0 0 -0 -0 -0 0 0 0 0 0 0 0 0 0 0 0 0 0 0 0 0 0 0 0 0 -0 -0 0 0 -0
0 0 0 -0 0 0 0 0 0 0 0 0 0 0 0 0 0 0 0 0 0 0 0 -0 -0 -0 -0 -0 0 0 0 0 0 0 0 0 0 0 -0 -0 -0 -0 0 0 0 -0 0 0 -0 0 0 0 0 0
0 0 0 0 0 0 0 0 0 0 0 0 0 0 0 0 0 0 0 -0 -0 -0 -0 -0 -0 -0 0 0 0 0 0 0 0 0 0 0 0 -0 -0 0 0 0 0 -0 0 0 -0 -0 0 0 0 0 0 0
0 0 0 0 0 0 0 0 0 0 0 0 0 0 0 0 0 -0 -0 -0 -0 -0 -0 -0 -0 0 0 0 0 0 0 0 0 0 0 0 -0 0 0 0 -0 -0 -0 0 0 0 -0 0 0 0 0 0 -0 -0
-0 -0 -0 -0 0 0 0 0 0 0 0 0 -0 -0 -0 -0 -0 -0 -0 -0 -0 0 0 0 0 0 0 0 0 0 0 0 0 0 0 0 0 0 0 -0 -0 -0 -0 0 0 0 0 0 0 0 0 0 -0 -0
0 0 0 0 0 0 0 0 0 0 0 0 0 -0 -0 0 -0 -0 -0 0 0 0 0 0 0 0 0 0 0 0 0 0 0 0 0 0 0 -0 -0 -0 -0 -0 0 0 0 -0 -0 -0 -0 -0 -0 -0 -0 -0
0 0 0 0 0 0 0 0 0 0 0 0 -0 0 0 0 -0 -0 0 0 0 0 0 0 0 0 0 -0 -0 0 -0 -0 -0 0 0 -0 -0 -0 -0 -0 0 0 0 0 -0 -0 -0 -0 -0 -0 -0 -0 0 0
0 0 0 0 0 0 -0 -0 -0 -0 -0 -0 0 0 0 0 0 0 0 0 0 0 0 0 0 0 0 0 0 0 0 0 -0 0 0 -0 -0 0 0 0 0 -0 -0 -0 -0 0 0 -0 -0 0 0 -0 0 0
0 0 0 0 0 0 0 -0 0 0 0 0 0 0 0 0 0 0 0 0 0 0 0 0 0 0 0 0 0 0 0 0 0 -0 -0 0 0 -0 -0 -0 -0 -0 -0 0 0 0 0 0 0 0 0 0 0 0
Wind_Speed_500mb
62 62 61 58 59 57 54 50 48 43 38 35 29 25 26 25 24 16 2 15 18 10 41 13 11 7 21 10 5 12 15 13 10 10 5 5 3 5 5 7 9 2 3 4 4 4 7 36 14 10 12 7 7 5
57 59 62 61 61 59 57 56 55 49 45 39 36 30 25 24 23 22 17 17 20 25 29 47 56 50 49 48 27 5 5 8 5 7 5 4 4 5 3 8 10 3 8 5 10 10 8 15 27 33 14 9 13 15
51 52 53 53 55 56 57 57 57 54 49 46 40 37 32 28 25 23 21 28 28 15 39 19 5 20 11 12 15 14 5 5 7 7 7 6 8 6 5 10 6 8 5 2 7 6 9 4 14 17 17 16 19 15
43 46 46 47 48 49 48 47 48 50 50 49 46 40 37 33 29 24 20 21 14 10 10 13 16 6 9 23 32 37 46 25 24 14 6 6 5 10 7 8 8 11 12 3 11 22 17 5 19 27 31 28 25 21
33 32 33 36 38 40 41 42 43 43 46 45 44 39 38 32 29 24 21 15 14 9 8 27 53 31 17 22 24 39 45 37 23 6 4 7 10 5 9 1 18 18 12 7 15 31 19 22 39 43 36 33 34 36
30 29 28 27 28 29 30 32 36 40 41 38 40 37 33 30 28 16 9 17 16 14 8 8 17 53 19 21 28 20 35 30 22 13 11 12 28 16 6 7 16 30 37 40 38 28 51 43 39 31 42 45 40 36
28 26 24 24 24 24 26 27 28 31 32 33 35 38 34 29 24 22 10 10 20 16 7 13 20 16 27 27 17 34 36 30 28 11 14 22 23 18 6 22 39 62 75 75 69 63 49 25 39 49 23 3 6 6
29 27 25 23 21 20 21 22 23 23 23 24 27 29 28 28 29 34 41 34 24 14 11 4 11 18 16 10 9 23 35 31 23 21 13 11 10 16 10 16 25 29 30 31 27 26 35 36 38 20 15 17 18 15
29 28 26 24 22 20 19 17 16 17 16 14 11 8 10 14 15 23 28 32 31 22 7 9 5 8 8 7 8 8 5 3 18 13 14 11 7 12 13 22 33 37 34 28 33 51 69 68 58 36 38 32 24 14
31 28 26 25 22 19 16 13 13 12 8 20 19 10 9 9 10 6 7 8 15 17 17 15 17 9 8 15 10 7 11 8 5 11 11 8 19 50 56 66 74 78 68 49 26 24 25 32 34 31 26 24 18 9
34 29 27 25 22 17 13 9 8 15 27 21 12 9 10 9 13 9 5 6 8 7 19 24 41 17 17 9 8 15 7 5 4 10 9 6 7 6 13 15 11 9 11 16 11 10 8 9 6 3 10 8 7 11
33 30 28 26 22 18 14 11 8 28 19 18 7 10 13 7 6 5 6 6 9 10 14 15 23 29 15 23 12 11 7 3 10 9 2 5 6 21 19 28 25 24 23 25 23 18 12 25 27 30 31 30 27 27
40 33 26 24 22 18 14 13 14 33 23 23 12 9 9 9 7 10 12 8 7 11 16 20 9 17 18 13 3 2 4 9 15 2 7 5 13 20 17 11 13 27 40 53 63 63 61 53 51 30 36 34 35 33
45 42 39 36 33 22 12 11 16 34 15 8 11 10 9 10 11 12 12 7 18 13 19 20 26 16 10 6 5 3 8 4 5 5 8 3 6 5 7 15 34 53 62 79 91 99 100 108 95 82 76 56 57 67
31 27 28 28 29 26 22 19 19 33 14 13 11 10 15 29 22 18 37 41 43 40 38 27 3 4 3 7 4 1 4 8 10 8 4 10 5 23 41 51 65 72 73 76 71 66 67 64 65 69 69 71 75 73
27 27 35 27 26 25 22 21 22 25 8 10 17 8 25 12 23 34 40 45 34 35 13 3 4 6 4 4 6 13 7 11 6 4 7 1 29 46 49 60 63 76 72 71 66 59 59 60 58 55 58 59 61 58
32 37 28 16 22 28 29 28 24 14 11 12 14 35 40 31 21 26 9 35 33 11 7 8 9 10 8 7 7 9 9 6 10 12 8 32 40 45 55 69 89 76 69 64 57 54 51 48 41 41 35 39 52 52
40 31 31 22 31 38 36 27 16 13 14 21 19 33 28 30 26 29 24 21 20 18 7 5 3 8 9 9 7 6 3 27 12 17 40 55 51 53 71 82 80 64 59 54 51 47 43 41 35 27 25 29 39 50
34 30 34 24 39 34 19 17 13 8 24 19 35 42 38 46 52 47 40 33 27 29 11 7 7 8 8 6 6 33 42 33 45 51 58 65 51 69 66 72 55 48 49 49 51 49 41 27 24 19 16 18 23 18
36 36 24 33 44 15 12 10 15 14 11 14 33 44 51 53 60 61 57 46 41 28 17 9 8 15 20 30 26 37 47 54 53 63 68 71 64 71 85 51 44 37 38 48 51 41 34 23 22 17 11 9 10 14
31 33 23 19 50 17 8 11 16 13 12 18 22 30 29 36 49 54 53 47 45 30 13 25 32 40 43 48 55 62 61 63 70 71 64 67 71 72 75 40 30 29 39 49 57 44 24 22 25 29 23 24 17 16
26 21 20 21 8 15 12 15 11 9 11 18 14 17 24 29 37 40 43 37 28 45 47 51 54 52 60 69 80 73 66 63 56 58 60 64 71 77 51 31 26 29 35 46 29 22 25 22 18 16 16 19 23 22
20 30 15 13 10 20 11 15 11 10 6 9 17 6 9 14 17 17 14 28 35 54 60 63 63 63 71 72 74 74 67 63 62 62 57 59 66 45 38 25 17 27 34 28 23 27 23 12 11 10 33 46 46 40
15 21 12 12 17 9 9 8 10 8 8 5 5 8 8 12 14 12 8 16 43 47 55 60 59 63 62 60 50 43 35 38 45 54 61 54 35 11 13 13 16 19 20 22 23 10 7 21 39 46 30 20 30 25
5 13 10 9 13 11 7 5 7 5 8 10 7 8 8 8 3 5 8 26 51 52 48 43 30 27 20 21 23 27 31 40 53 53 25 17 15 11 12 12 13 13 16 21 6 11 25 31 30 26 23 29 41 38
7 12 11 15 11 10 12 7 12 13 5 7 13 12 9 7 10 10 6 7 10 18 18 14 14 14 19 20 25 34 35 24 18 16 18 18 19 27 21 19 18 20 13 5 14 28 25 32 34 32 37 38 33 28
7 10 13 16 10 11 9 16 19 4 8 9 6 4 5 6 9 7 4 9 14 5 10 21 20 23 28 30 35 27 15 17 20 13 16 21 24 21 24 21 16 8 18 36 31 31 33 30 30 36 38 37 37 52
13 14 14 23 15 13 5 5 6 7 8 11 7 6 6 7 2 5 5 8 10 19 36 42 35 35 31 20 11 13 17 15 15 16 12 10 11 11 7 16 37 45 37 32 32 37 34 37 40 36 24 25 49 45
12 12 15 15 15 13 17 9 9 13 18 5 6 10 9 11 9 17 21 21 31 43 47 40 15 5 10 15 18 18 18 15 14 20 26 26 25 29 45 43 36 30 26 27 28 26 23 20 17 23 31 43 34 34
13 23 12 9 9 12 19 31 24 28 34 41 40 21 20 29 39 41 43 44 40 35 19 7 12 13 18 25 21 19 15 20 31 22 24 31 37 40 35 34 33 32 32 35 34 29 22 15 22 38 36 31 28 32
9 32 15 19 12 28 40 36 40 45 51 48 25 25 30 27 45 38 15 14 11 10 17 18 13 14 29 27 24 25 34 38 39 36 36 44 46 44 43 39 34 29 26 26 30 29 24 26 40 35 27 23 27 28
14 23 9 5 6 14 15 13 9 9 10 10 12 18 20 14 11 10 8 4 11 14 26 35 36 36 26 19 14 20 28 37 35 24 16 37 34 21 23 25 24 25 28 26 33 39 42 30 29 29 20 11 21 19
20 22 22 19 13 6 4 13 12 11 12 7 7 13 11 6 8 6 11 22 30 44 43 34 24 26 29 27 28 33 29 29 39 45 41 38 39 38 33 39 32 28 24 30 29 36 38 35 35 40 31 23 20 17
Wind_Direction_500mb
270 270 272 275 272 272 274 275 277 285 283 285 297 312 325 331 340 353 340 336 338 286 296 279 217 268 312 292 141 311 354 355 8 38 103 275 253 275 317 271 293 261 351 324 31 159 258 349 11 83 226 256 238 110
271 270 269 268 269 270 270 271 272 275 272 274 277 286 299 316 323 332 336 325 306 277 269 285 279 276 271 261 264 261 244 334 274 57 20 341 323 328 196 285 322 272 158 219 166 216 211 339 91 39 49 33 18 48
272 271 271 271 269 267 266 265 267 269 267 265 266 268 277 291 304 311 320 336 336 310 304 296 355 353 185 159 212 237 244 231 238 360 197 232 243 134 226 247 335 301 54 241 22 267 339 17 47 42 35 351 336 336
271 271 271 271 271 269 267 264 261 261 262 263 261 260 265 272 284 294 308 325 311 309 284 269 261 289 268 259 252 245 253 253 261 294 240 217 203 204 223 225 186 227 329 209 260 283 293 184 352 339 331 330 338 320
271 273 272 271 269 269 268 264 261 259 258 259 259 256 254 257 269 283 299 259 218 267 279 292 305 282 261 259 250 245 252 229 254 235 183 240 234 234 258 152 255 213 222 221 263 274 258 290 319 320 312 311 309 302
269 271 271 273 274 274 270 265 262 260 258 254 250 251 250 253 260 269 253 222 220 220 279 306 298 301 315 287 247 239 214 224 227 202 215 236 243 237 237 246 258 244 246 266 259 278 296 302 312 310 308 301 292 290
264 264 266 270 274 277 276 273 266 262 261 255 249 245 242 240 230 218 220 180 204 218 251 295 300 280 302 322 268 226 232 242 235 212 229 228 236 249 205 256 260 276 277 281 282 277 284 290 317 320 298 102 94 76
262 262 260 263 268 273 280 279 274 270 261 249 241 241 236 233 232 234 233 242 240 250 222 233 270 303 300 307 258 229 242 239 218 215 232 191 231 203 247 253 267 273 276 279 273 245 254 286 304 262 248 251 260 274
262 262 260 259 263 271 274 282 284 275 259 237 196 172 207 221 219 235 239 237 241 217 210 188 228 260 297 291 322 316 278 216 238 198 231 185 214 225 235 255 265 276 276 269 278 281 282 279 277 237 241 238 241 235
254 257 262 262 260 266 267 279 280 276 185 143 146 162 198 205 208 188 195 213 202 208 216 222 216 247 285 310 314 320 268 217 222 239 221 190 243 256 267 269 274 280 287 290 295 316 306 284 250 199 206 214 223 228
247 243 252 259 256 255 255 270 277 156 144 154 167 203 193 179 168 175 182 200 182 246 215 230 212 233 241 180 211 215 242 235 220 257 150 258 315 306 5 2 18 88 55 49 28 74 66 111 111 323 307 310 296 292
232 232 235 243 251 253 249 254 219 167 161 172 168 158 183 186 173 187 200 182 215 236 209 202 216 205 222 202 186 217 212 282 245 323 102 271 253 358 58 98 87 75 63 47 33 28 17 324 306 283 272 270 272 283
226 222 226 231 241 248 228 238 214 189 173 175 200 176 170 171 187 202 193 213 227 215 223 206 204 186 202 204 189 40 273 245 325 326 231 208 47 59 67 50 10 352 340 331 329 321 318 312 304 287 259 239 252 271
234 224 218 224 229 232 245 248 215 199 192 192 174 202 200 201 224 200 213 195 221 256 1 315 243 199 156 110 155 199 248 24 284 261 243 181 174 79 31 352 330 320 319 313 300 292 289 286 278 270 270 269 274 273
226 228 228 225 224 223 198 214 222 207 204 215 211 219 217 230 232 240 245 254 264 277 300 314 337 143 351 114 159 217 262 244 214 230 197 197 23 331 322 327 325 320 314 308 303 300 300 293 288 276 268 265 260 263
218 228 227 230 224 209 206 205 202 216 240 240 222 250 252 241 258 250 259 277 301 289 244 178 80 62 351 269 160 209 199 221 243 194 191 168 330 334 328 323 316 319 314 311 309 309 303 299 292 291 286 253 242 247
206 224 221 201 203 205 201 191 191 202 234 249 226 242 257 277 275 290 294 337 336 349 186 169 167 173 220 211 218 193 210 232 331 222 282 328 325 328 325 325 327 321 317 321 320 318 309 304 303 299 282 255 229 246
216 225 185 192 192 185 188 185 187 225 237 236 233 253 267 269 289 290 299 306 343 353 303 191 162 238 213 200 209 232 307 330 327 331 332 330 328 324 331 328 323 325 328 332 331 329 321 317 306 296 276 260 253 261
212 216 204 207 186 173 175 189 212 253 239 242 247 249 256 270 273 275 274 281 285 287 280 205 233 220 234 259 286 301 303 314 320 313 314 320 317 327 326 331 328 328 329 335 343 343 338 327 318 310 297 281 272 267
217 212 199 203 193 165 180 199 196 245 255 250 239 239 248 253 264 269 273 270 260 243 214 215 220 220 244 251 268 275 284 294 296 301 304 308 314 329 330 333 319 317 328 341 345 343 342 3 22 9 359 337 319 342
196 205 224 194 190 190 225 205 203 235 246 235 246 235 235 255 253 249 250 252 247 234 235 218 232 239 250 264 271 274 281 282 288 293 296 303 313 322 330 320 303 311 323 334 335 336 326 330 3 6 358 357 340 319
192 201 196 203 189 187 243 233 241 271 239 254 278 222 237 246 256 255 260 240 238 241 247 258 263 267 267 266 270 275 280 286 282 284 292 305 311 318 321 293 289 306 330 345 352 355 349 359 7 357 4 13 68 89
184 184 181 189 211 200 253 222 232 227 239 277 322 232 231 215 229 243 224 237 248 258 263 260 265 268 265 271 275 276 277 275 275 280 294 303 311 307 297 266 279 306 329 336 314 316 324 354 14 28 87 111 101 90
147 170 176 198 205 205 221 228 215 258 265 263 248 249 282 217 225 215 235 231 259 261 259 258 264 260 260 263 261 258 257 264 278 286 298 303 295 279 245 266 301 319 310 311 320 332 33 106 112 115 115 95 88 86
185 186 206 211 203 201 209 218 206 223 244 220 244 270 268 242 226 254 239 261 262 260 254 253 242 232 229 243 255 268 274 285 288 292 290 244 242 254 259 288 311 293 289 316 316 112 120 119 117 112 105 102 93 98
231 201 201 199 178 206 198 221 201 214 224 223 228 239 219 180 204 245 249 10 99 169 183 202 230 256 269 273 278 287 293 280 253 219 187 231 269 274 261 272 256 290 282 173 143 135 121 122 121 113 102 103 93 99
230 204 205 225 220 230 242 248 257 227 227 228 247 243 246 247 234 238 169 183 155 90 349 329 303 284 284 284 287 285 263 222 213 211 272 278 275 264 245 252 243 233 144 132 129 134 141 131 121 113 107 97 98 110
237 215 204 190 204 237 299 304 282 243 217 239 250 242 229 227 221 137 162 195 276 313 319 314 304 295 283 265 228 187 189 202 237 258 240 230 216 205 251 153 151 137 129 123 115 113 119 122 124 119 100 105 133 120
234 227 201 201 191 199 214 224 234 244 242 234 303 306 282 298 308 306 301 303 304 295 294 293 260 215 176 165 168 178 192 216 206 177 162 151 138 127 131 132 132 132 131 133 140 138 132 133 127 126 131 138 128 128
237 212 203 229 220 218 227 209 236 242 268 263 289 276 277 279 292 298 301 295 286 283 274 217 178 183 176 183 190 198 189 170 143 138 146 145 152 151 147 140 141 137 133 132 141 154 173 156 138 138 142 144 136 141
217 176 204 214 229 236 249 256 259 262 274 283 273 277 283 296 305 313 286 263 244 210 187 175 160 161 169 185 186 181 158 155 147 136 138 136 134 133 129 124 121 123 131 148 164 171 165 148 159 151 151 145 149 157
199 200 228 280 297 327 337 338 280 268 256 254 263 279 290 298 284 279 293 234 188 157 132 131 151 178 177 181 172 159 165 168 168 159 167 170 163 161 157 151 148 152 153 151 142 148 145 148 165 168 146 148 145 133
199 195 207 236 252 252 314 347 311 295 279 269 279 280 278 264 266 330 90 149 145 152 157 152 150 143 133 153 149 157 148 138 139 139 142 140 145 141 143 145 143 145 152 148 146 142 165 146 136 139 137 132 126 110
Wind_Speed_850mb
62 62 61 58 59 57 54 50 48 43 38 35 29 25 26 25 24 16 2 15 18 10 41 13 11 7 21 10 5 12 15 13 10 10 5 5 3 5 5 7 9 2 3 4 4 4 7 36 14 10 12 7 7 5
57 59 62 61 61 59 57 56 55 49 45 39 36 30 25 24 23 22 17 17 20 25 29 47 56 50 49 48 27 5 5 8 5 7 5 4 4 5 3 8 10 3 8 5 10 10 8 15 27 33 14 9 13 15
51 52 53 53 55 56 57 57 57 54 49 46 40 37 32 28 25 23 21 28 28 15 39 19 5 20 11 12 15 14 5 5 7 7 7 6 8 6 5 10 6 8 5 2 7 6 9 4 14 17 17 16 19 15
43 46 46 47 48 49 48 47 48 50 50 49 46 40 37 33 29 24 20 21 14 10 10 13 16 6 9 23 32 37 46 25 24 14 6 6 5 10 7 8 8 11 12 3 11 22 17 5 19 27 31 28 25 21
33 32 33 36 38 40 41 42 43 43 46 45 44 39 38 32 29 24 21 15 14 9 8 27 53 31 17 22 24 39 45 37 23 6 4 7 10 5 9 1 18 18 12 7 15 31 19 22 39 43 36 33 34 36
30 29 28 27 28 29 30 32 36 40 41 38 40 37 33 30 28 16 9 17 16 14 8 8 17 53 19 21 28 20 35 30 22 13 11 12 28 16 6 7 16 30 37 40 38 28 51 43 39 31 42 45 40 36
28 26 24 24 24 24 26 27 28 31 32 33 35 38 34 29 24 22 10 10 20 16 7 13 20 16 27 27 17 34 36 30 28 11 14 22 23 18 6 22 39 62 75 75 69 63 49 25 39 49 23 3 6 6
29 27 25 23 21 20 21 22 23 23 23 24 27 29 28 28 29 34 41 34 24 14 11 4 11 18 16 10 9 23 35 31 23 21 13 11 10 16 10 16 25 29 30 31 27 26 35 36 38 20 15 17 18 15
29 28 26 24 22 20 19 17 16 17 16 14 11 8 10 14 15 23 28 32 31 22 7 9 5 8 8 7 8 8 5 3 18 13 14 11 7 12 13 22 33 37 34 28 33 51 69 68 58 36 38 32 24 14
31 28 26 25 22 19 16 13 13 12 8 20 19 10 9 9 10 6 7 8 15 17 17 15 17 9 8 15 10 7 11 8 5 11 11 8 19 50 56 66 74 78 68 49 26 24 25 32 34 31 26 24 18 9
34 29 27 25 22 17 13 9 8 15 27 21 12 9 10 9 13 9 5 6 8 7 19 24 41 17 17 9 8 15 7 5 4 10 9 6 7 6 13 15 11 9 11 16 11 10 8 9 6 3 10 8 7 11
33 30 28 26 22 18 14 11 8 28 19 18 7 10 13 7 6 5 6 6 9 10 14 15 23 29 15 23 12 11 7 3 10 9 2 5 6 21 19 28 25 24 23 25 23 18 12 25 27 30 31 30 27 27
40 33 26 24 22 18 14 13 14 33 23 23 12 9 9 9 7 10 12 8 7 11 16 20 9 17 18 13 3 2 4 9 15 2 7 5 13 20 17 11 13 27 40 53 63 63 61 53 51 30 36 34 35 33
45 42 39 36 33 22 12 11 16 34 15 8 11 10 9 10 11 12 12 7 18 13 19 20 26 16 10 6 5 3 8 4 5 5 8 3 6 5 7 15 34 53 62 79 91 99 100 108 95 82 76 56 57 67
31 27 28 28 29 26 22 19 19 33 14 13 11 10 15 29 22 18 37 41 43 40 38 27 3 4 3 7 4 1 4 8 10 8 4 10 5 23 41 51 65 72 73 76 71 66 67 64 65 69 69 71 75 73
27 27 35 27 26 25 22 21 22 25 8 10 17 8 25 12 23 34 40 45 34 35 13 3 4 6 4 4 6 13 7 11 6 4 7 1 29 46 49 60 63 76 72 71 66 59 59 60 58 55 58 59 61 58
32 37 28 16 22 28 29 28 24 14 11 12 14 35 40 31 21 26 9 35 33 11 7 8 9 10 8 7 7 9 9 6 10 12 8 32 40 45 55 69 89 76 69 64 57 54 51 48 41 41 35 39 52 52
40 31 31 22 31 38 36 27 16 13 14 21 19 33 28 30 26 29 24 21 20 18 7 5 3 8 9 9 7 6 3 27 12 17 40 55 51 53 71 82 80 64 59 54 51 47 43 41 35 27 25 29 39 50
34 30 34 24 39 34 19 17 13 8 24 19 35 42 38 46 52 47 40 33 27 29 11 7 7 8 8 6 6 33 42 33 45 51 58 65 51 69 66 72 55 48 49 49 51 49 41 27 24 19 16 18 23 18
36 36 24 33 44 15 12 10 15 14 11 14 33 44 51 53 60 61 57 46 41 28 17 9 8 15 20 30 26 37 47 54 53 63 68 71 64 71 85 51 44 37 38 48 51 41 34 23 22 17 11 9 10 14
31 33 23 19 50 17 8 11 16 13 12 18 22 30 29 36 49 54 53 47 45 30 13 25 32 40 43 48 55 62 61 63 70 71 64 67 71 72 75 40 30 29 39 49 57 44 24 22 25 29 23 24 17 16
26 21 20 21 8 15 12 15 11 9 11 18 14 17 24 29 37 40 43 37 28 45 47 51 54 52 60 69 80 73 66 63 56 58 60 64 71 77 51 31 26 29 35 46 29 22 25 22 18 16 16 19 23 22
20 30 15 13 10 20 11 15 11 10 6 9 17 6 9 14 17 17 14 28 35 54 60 63 63 63 71 72 74 74 67 63 62 62 57 59 66 45 38 25 17 27 34 28 23 27 23 12 11 10 33 46 46 40
15 21 12 12 17 9 9 8 10 8 8 5 5 8 8 12 14 12 8 16 43 47 55 60 59 63 62 60 50 43 35 38 45 54 61 54 35 11 13 13 16 19 20 22 23 10 7 21 39 46 30 20 30 25
5 13 10 9 13 11 7 5 7 5 8 10 7 8 8 8 3 5 8 26 51 52 48 43 30 27 20 21 23 27 31 40 53 53 25 17 15 11 12 12 13 13 16 21 6 11 25 31 30 26 23 29 41 38
7 12 11 15 11 10 12 7 12 13 5 7 13 12 9 7 10 10 6 7 10 18 18 14 14 14 19 20 25 34 35 24 18 16 18 18 19 27 21 19 18 20 13 5 14 28 25 32 34 32 37 38 33 28
7 10 13 16 10 11 9 16 19 4 8 9 6 4 5 6 9 7 4 9 14 5 10 21 20 23 28 30 35 27 15 17 20 13 16 21 24 21 24 21 16 8 18 36 31 31 33 30 30 36 38 37 37 52
13 14 14 23 15 13 5 5 6 7 8 11 7 6 6 7 2 5 5 8 10 19 36 42 35 35 31 20 11 13 17 15 15 16 12 10 11 11 7 16 37 45 37 32 32 37 34 37 40 36 24 25 49 45
12 12 15 15 15 13 17 9 9 13 18 5 6 10 9 11 9 17 21 21 31 43 47 40 15 5 10 15 18 18 18 15 14 20 26 26 25 29 45 43 36 30 26 27 28 26 23 20 17 23 31 43 34 34
13 23 12 9 9 12 19 31 24 28 34 41 40 21 20 29 39 41 43 44 40 35 19 7 12 13 18 25 21 19 15 20 31 22 24 31 37 40 35 34 33 32 32 35 34 29 22 15 22 38 36 31 28 32
9 32 15 19 12 28 40 36 40 45 51 48 25 25 30 27 45 38 15 14 11 10 17 18 13 14 29 27 24 25 34 38 39 36 36 44 46 44 43 39 34 29 26 26 30 29 24 26 40 35 27 23 27 28
14 23 9 5 6 14 15 13 9 9 10 10 12 18 20 14 11 10 8 4 11 14 26 35 36 36 26 19 14 20 28 37 35 24 16 37 34 21 23 25 24 25 28 26 33 39 42 30 29 29 20 11 21 19
20 22 22 19 13 6 4 13 12 11 12 7 7 13 11 6 8 6 11 22 30 44 43 34 24 26 29 27 28 33 29 29 39 45 41 38 39 38 33 39 32 28 24 30 29 36 38 35 35 40 31 23 20 17
Wind_Direction_850mb
270 270 272 275 272 272 274 275 277 285 283 285 297 312 325 331 340 353 340 336 338 286 296 279 217 268 312 292 141 311 354 355 8 38 103 275 253 275 317 271 293 261 351 324 31 159 258 349 11 83 226 256 238 110
271 270 269 268 269 270 270 271 272 275 272 274 277 286 299 316 323 332 336 325 306 277 269 285 279 276 271 261 264 261 244 334 274 57 20 341 323 328 196 285 322 272 158 219 166 216 211 339 91 39 49 33 18 48
272 271 271 271 269 267 266 265 267 269 267 265 266 268 277 291 304 311 320 336 336 310 304 296 355 353 185 159 212 237 244 231 238 360 197 232 243 134 226 247 335 301 54 241 22 267 339 17 47 42 35 351 336 336
271 271 271 271 271 269 267 264 261 261 262 263 261 260 265 272 284 294 308 325 311 309 284 269 261 289 268 259 252 245 253 253 261 294 240 217 203 204 223 225 186 227 329 209 260 283 293 184 352 339 331 330 338 320
271 273 272 271 269 269 268 264 261 259 258 259 259 256 254 257 269 283 299 259 218 267 279 292 305 282 261 259 250 245 252 229 254 235 183 240 234 234 258 152 255 213 222 221 263 274 258 290 319 320 312 311 309 302
269 271 271 273 274 274 270 265 262 260 258 254 250 251 250 253 260 269 253 222 220 220 279 306 298 301 315 287 247 239 214 224 227 202 215 236 243 237 237 246 258 244 246 266 259 278 296 302 312 310 308 301 292 290
264 264 266 270 274 277 276 273 266 262 261 255 249 245 242 240 230 218 220 180 204 218 251 295 300 280 302 322 268 226 232 242 235 212 229 228 236 249 205 256 260 276 277 281 282 277 284 290 317 320 298 102 94 76
262 262 260 263 268 273 280 279 274 270 261 249 241 241 236 233 232 234 233 242 240 250 222 233 270 303 300 307 258 229 242 239 218 215 232 191 231 203 247 253 267 273 276 279 273 245 254 286 304 262 248 251 260 274
262 262 260 259 263 271 274 282 284 275 259 237 196 172 207 221 219 235 239 237 241 217 210 188 228 260 297 291 322 316 278 216 238 198 231 185 214 225 235 255 265 276 276 269 278 281 282 279 277 237 241 238 241 235
254 257 262 262 260 266 267 279 280 276 185 143 146 162 198 205 208 188 195 213 202 208 216 222 216 247 285 310 314 320 268 217 222 239 221 190 243 256 267 269 274 280 287 290 295 316 306 284 250 199 206 214 223 228
247 243 252 259 256 255 255 270 277 156 144 154 167 203 193 179 168 175 182 200 182 246 215 230 212 233 241 180 211 215 242 235 220 257 150 258 315 306 5 2 18 88 55 49 28 74 66 111 111 323 307 310 296 292
232 232 235 243 251 253 249 254 219 167 161 172 168 158 183 186 173 187 200 182 215 236 209 202 216 205 222 202 186 217 212 282 245 323 102 271 253 358 58 98 87 75 63 47 33 28 17 324 306 283 272 270 272 283
226 222 226 231 241 248 228 238 214 189 173 175 200 176 170 171 187 202 193 213 227 215 223 206 204 186 202 204 189 40 273 245 325 326 231 208 47 59 67 50 10 352 340 331 329 321 318 312 304 287 259 239 252 271
234 224 218 224 229 232 245 248 215 199 192 192 174 202 200 201 224 200 213 195 221 256 1 315 243 199 156 110 155 199 248 24 284 261 243 181 174 79 31 352 330 320 319 313 300 292 289 286 278 270 270 269 274 273
226 228 228 225 224 223 198 214 222 207 204 215 211 219 217 230 232 240 245 254 264 277 300 314 337 143 351 114 159 217 262 244 214 230 197 197 23 331 322 327 325 320 314 308 303 300 300 293 288 276 268 265 260 263
218 228 227 230 224 209 206 205 202 216 240 240 222 250 252 241 258 250 259 277 301 289 244 178 80 62 351 269 160 209 199 221 243 194 191 168 330 334 328 323 316 319 314 311 309 309 303 299 292 291 286 253 242 247
206 224 221 201 203 205 201 191 191 202 234 249 226 242 257 277 275 290 294 337 336 349 186 169 167 173 220 211 218 193 210 232 331 222 282 328 325 328 325 325 327 321 317 321 320 318 309 304 303 299 282 255 229 246
216 225 185 192 192 185 188 185 187 225 237 236 233 253 267 269 289 290 299 306 343 353 303 191 162 238 213 200 209 232 307 330 327 331 332 330 328 324 331 328 323 325 328 332 331 329 321 317 306 296 276 260 253 261
212 216 204 207 186 173 175 189 212 253 239 242 247 249 256 270 273 275 274 281 285 287 280 205 233 220 234 259 286 301 303 314 320 313 314 320 317 327 326 331 328 328 329 335 343 343 338 327 318 310 297 281 272 267
217 212 199 203 193 165 180 199 196 245 255 250 239 239 248 253 264 269 273 270 260 243 214 215 220 220 244 251 268 275 284 294 296 301 304 308 314 329 330 333 319 317 328 341 345 343 342 3 22 9 359 337 319 342
196 205 224 194 190 190 225 205 203 235 246 235 246 235 235 255 253 249 250 252 247 234 235 218 232 239 250 264 271 274 281 282 288 293 296 303 313 322 330 320 303 311 323 334 335 336 326 330 3 6 358 357 340 319
192 201 196 203 189 187 243 233 241 271 239 254 278 222 237 246 256 255 260 240 238 241 247 258 263 267 267 266 270 275 280 286 282 284 292 305 311 318 321 293 289 306 330 345 352 355 349 359 7 357 4 13 68 89
184 184 181 189 211 200 253 222 232 227 239 277 322 232 231 215 229 243 224 237 248 258 263 260 265 268 265 271 275 276 277 275 275 280 294 303 311 307 297 266 279 306 329 336 314 316 324 354 14 28 87 111 101 90
147 170 176 198 205 205 221 228 215 258 265 263 248 249 282 217 225 215 235 231 259 261 259 258 264 260 260 263 261 258 257 264 278 286 298 303 295 279 245 266 301 319 310 311 320 332 33 106 112 115 115 95 88 86
185 186 206 211 203 201 209 218 206 223 244 220 244 270 268 242 226 254 239 261 262 260 254 253 242 232 229 243 255 268 274 285 288 292 290 244 242 254 259 288 311 293 289 316 316 112 120 119 117 112 105 102 93 98
231 201 201 199 178 206 198 221 201 214 224 223 228 239 219 180 204 245 249 10 99 169 183 202 230 256 269 273 278 287 293 280 253 219 187 231 269 274 261 272 256 290 282 173 143 135 121 122 121 113 102 103 93 99
230 204 205 225 220 230 242 248 257 227 227 228 247 243 246 247 234 238 169 183 155 90 349 329 303 284 284 284 287 285 263 222 213 211 272 278 275 264 245 252 243 233 144 132 129 134 141 131 121 113 107 97 98 110
237 215 204 190 204 237 299 304 282 243 217 239 250 242 229 227 221 137 162 195 276 313 319 314 304 295 283 265 228 187 189 202 237 258 240 230 216 205 251 153 151 137 129 123 115 113 119 122 124 119 100 105 133 120
234 227 201 201 191 199 214 224 234 244 242 234 303 306 282 298 308 306 301 303 304 295 294 293 260 215 176 165 168 178 192 216 206 177 162 151 138 127 131 132 132 132 131 133 140 138 132 133 127 126 131 138 128 128
237 212 203 229 220 218 227 209 236 242 268 263 289 276 277 279 292 298 301 295 286 283 274 217 178 183 176 183 190 198 189 170 143 138 146 145 152 151 147 140 141 137 133 132 141 154 173 156 138 138 142 144 136 141
217 176 204 214 229 236 249 256 259 262 274 283 273 277 283 296 305 313 286 263 244 210 187 175 160 161 169 185 186 181 158 155 147 136 138 136 134 133 129 124 121 123 131 148 164 171 165 148 159 151 151 145 149 157
199 200 228 280 297 327 337 338 280 268 256 254 263 279 290 298 284 279 293 234 188 157 132 131 151 178 177 181 172 159 165 168 168 159 167 170 163 161 157 151 148 152 153 151 142 148 145 148 165 168 146 148 145 133
199 195 207 236 252 252 314 347 311 295 279 269 279 280 278 264 266 330 90 149 145 152 157 152 150 143 133 153 149 157 148 138 139 139 142 140 145 141 143 145 143 145 152 148 146 142 165 146 136 139 137 132 126 110